Other Public Products
Issued by NWS Grand Forks, ND

Home | Current Version | Previous Version | Text Only | Print | Product List | Glossary Off
Versions: 1 2 3 4 5 6 7 8 9 10 11 12 13 14 15 16 17 18 19 20 21 22 23 24 25 26 27 28 29 30 31 32 33 34 35 36 37 38 39 40 41 42 43 44 45 46 47 48 49 50

000
FPUS83 KFGF 060110
OPUFGF
PRAIRIE TO PINES WEATHER ROUNDUP
NATIONAL WEATHER SERVICE EASTERN NORTH DAKOTA/GRAND FORKS ND
700 PM CST MON DEC 05 2016

 **SATELLITE DATA USED TO AUGMENT SKY COVER AT AUTOMATED STATIONS**
 *****  WEATHER ACROSS EASTERN NORTH DAKOTA  *****

CITY           SKY/WX    TMP DP  RH WIND       PRES   REMARKS
GRAND FORKS    FLURRIES  31  27  85 NE16      29.56F WCI  20
GRAND FORKS AF LGT SNOW  30  27  86 NE14      29.56F FOG     WCI  20
GRAND CITY NWS   N/A     30 N/A N/A NE12        N/A  WCI  21
BUXTON         NOT AVBL
DEVILS LAKE    LGT SNOW  26  26 100 NE12      29.58S FOG     WCI  16
FARGO          FLURRIES  34  30  85 NE8       29.47F
WAHPETON ARPT  CLOUDY    34  32  93 S6        29.47S
$$

 *****  WEATHER ACROSS CENTRAL AND WESTERN NORTH DAKOTA  *****

CITY           SKY/WX    TMP DP  RH WIND       PRES   REMARKS
JAMESTOWN      LGT SNOW  27  25  92 N13       29.52F VSB 3/4 WCI  16
BISMARCK       LGT SNOW  17  13  84 NW23G40   29.69R FOG     WCI  -1
MINOT          FRZ RAIN  23  20  88 W20       29.63S FOG     WCI   8
MINOT AFB      LGT SNOW  23  19  86 NW22      29.62S VSB 3/4 WCI   8
GARRISON         N/A     16  12  84 NW33G46   29.66S WCI  -5
WILLISTON      LGT SNOW  11   6  81 NW29G41   29.85R VSB 3/4 WCI -11
DICKINSON      LGT SNOW   8   3  80 NW33G43   29.78R WCI -16
HETTINGER      MIX PCPN   8   3  80 NW32G41   29.80S WCI -16
$$

 *****  OTHER OBSERVATIONS NORTHEAST NORTH DAKOTA  *****

CITY           SKY/WX    TMP DP  RH WIND       PRES   REMARKS
WALHALLA         N/A     28  28 100 NE9       29.66F WCI  20
LANGDON          N/A    N/A N/A N/A MISG      29.61F
CAVALIER         N/A     30  28  93 NE9       29.65S WCI  22
GRAFTON        MOCLDY    30  28  93 NE13G22   29.62F WCI  20
CANDO          LGT SNOW  27  27 100 NE12      29.62S WCI  16
FORT TOTTEN      N/A     27  27 100 NE7       29.95S WCI  19
ROLLA          LGT SNOW  25  25 100 NE8       29.62S WCI  16
RUGBY          LGT SNOW  23  23 100 NW6       29.61S WCI  16
 ***** THE ABOVE OBSERVATIONS ARE NON NWS ARE NOT QUALITY
        CONTROLLED AND MAY MIS-REPORT RAIN FOR SNOW...
$$

 *****  OTHER OBSERVATIONS SOUTHEAST NORTH DAKOTA *****

CITY           SKY/WX    TMP DP  RH WIND       PRES   REMARKS
COOPERSTOWN    LGT SNOW  28  28 100 N13       29.52F VSB 3/4 WCI  18
VALLEY CITY    LGT SNOW  28  28 100 N10       29.50F VSB 1   WCI  19
OAKES          NOT AVBL
GWINNER        CLOUDY    34  34 100 W10       29.46F
SHEYENNE NWR     N/A     33  31  91 CALM      29.95S
BUFFALO        NOT AVBL
WYNDMERE       NOT AVBL
 ***** THE ABOVE OBSERVATIONS ARE NON NWS ARE NOT QUALITY
       CONTROLLED AND MAY MIS-REPORT RAIN FOR SNOW...
$$

  *****  WEATHER ACROSS NORTHERN MINNESOTA  *****

CITY           SKY/WX    TMP DP  RH WIND       PRES   REMARKS
FLAG ISLAND    CLOUDY    30  27  86 E7        29.69S WCI  23
WARROAD        CLOUDY    30  27  86 E17G25    29.66F WCI  18
ROSEAU         CLOUDY    30  27  86 E18       29.64F WCI  18
HALLOCK        CLOUDY    30  28  93 NE13      29.62F WCI  20
THF RVR FALLS  CLOUDY    29  27  92 NE16      29.57F WCI  17
HALSTAD        NOT AVBL
FOSSTON        SNOW      28  27  93 E10       29.52F VSB 1/2 WCI  19
BAUDETTE       CLOUDY    30  25  81 E15       29.65F WCI  19
WASKISH        LGT SNOW  30  27  86 E14G20    29.62F WCI  20
CROOKSTON      LGT SNOW  30  28  93 E14       29.55F WCI  20
$$
  *****  WEATHER ACROSS CENTRAL AND WEST MINNESOTA  *****

CITY           SKY/WX    TMP DP  RH WIND       PRES   REMARKS
BEMIDJI        SNOW      30  30  99 E13       29.54F VSB 1/4 WCI  20
PARK RAPIDS    CLOUDY    33  29  85 E15G21    29.50F WCI  23
WADENA         CLOUDY    32  30  93 E10       29.49S WCI  24
DETROIT LAKES  CLOUDY    34  32  93 SE12      29.47F
MOORHEAD       CLOUDY    34  30  86 E6        29.48F
FERGUS FALLS   CLOUDY    36  32  87 SE9       29.49F
ELBOW LAKE     CLOUDY    34  33  94 E10       29.46S
MORRIS MN      MOCLDY    36  34  93 S15       29.46S
STAPLES        CLOUDY    32  32 100 E6        29.50F
WHEATON        CLOUDY    36  34  93 S7        29.48F
$$
  *****  WEATHER ELSEWHERE ACROSS MINNESOTA  *****

CITY           SKY/WX    TMP DP  RH WIND       PRES   REMARKS
DULUTH         FOG       33  33 100 E17       29.69S VSB 1/4 WCI  22
INTRNTL FALLS  CLOUDY    30  25  81 E12       29.69F WCI  20
ELY            LGT SNOW  28  27  93 E6        29.73F WCI  22
CLOQUET        CLOUDY    34  30  86 E7        29.68S FOG
BRAINERD       CLOUDY    34  32  92 SE12G21   29.55F
HIBBING        LGT SNOW  31  30  96 SE9       29.64F FOG     WCI  23
ALEXANDRIA     CLOUDY    35  33  92 SE10      29.49S
SAINT CLOUD    CLOUDY    39  34  82 S20G25    29.55F
MINNEAPOLIS    CLOUDY    38  31  76 SE18      29.66S
$$

  *****  WEATHER ACROSS SOUTH DAKOTA  *****

CITY           SKY/WX    TMP DP  RH WIND       PRES   REMARKS
SIOUX FALLS    CLOUDY    35  29  78 W18G32    29.66R WCI  24
BROOKINGS      CLOUDY    31  27  85 W29G40    29.59R WCI  16
WATERTOWN      CLOUDY    30  27  88 W23G32    29.53R WCI  17
HURON          CLOUDY    29  22  75 NW29G43   29.70R WCI  14
SISSETON         N/A     36  31  82 W22G29    29.46S
ABERDEEN       CLOUDY    28  21  75 NW26G38   29.60R WCI  13
MITCHELL       CLOUDY    30  24  78 NW29G37   29.74R WCI  15
PIERRE         CLOUDY    24  15  68 NW33G39   29.80R WCI   6
MOBRIDGE       LGT SNOW  20  13  74 NW32G43   29.71R WCI   1
RAPID CITY     MOCLDY    19  13  77 N17       29.85R WCI   4
$$

  *****  SOME WEATHER IN NEARBY STATES *****

CITY           SKY/WX    TMP DP  RH WIND       PRES   REMARKS
GLASGOW MT     MOCLDY     6  -3  66 W22       30.03S WCI -15
GREAT FALLS MT CLOUDY     9   3  77 NW9       30.07R WCI  -4
CHEYENNE WY    MOCLDY    20  -7  30 NW13G23   29.83R WCI   7
SCOTTSBLUFF NE MOCLDY    22   9  57 NW15      29.91R WCI   9
OMAHA NE       MOCLDY    45  37  73 S7        29.72R
DES MOINES IA  PTCLDY    41  34  76 SE13      29.74S
DAVENPORT IA   CLOUDY    33  31  92 SE16      29.90F WCI  23
CHICAGO IL     CLOUDY    32  30  92 SE7       29.98S FOG
EAU CLAIRE WI  CLOUDY    36  30  79 S13G23    29.74R
LA CROSSE WI   CLOUDY    38  31  76 SE13      29.80F
$$

  *****  SOME NATIONAL WEATHER *****

CITY           SKY/WX    TMP DP  RH WIND       PRES   REMARKS
LA GUARDIA NY  PTCLDY    47  33  58 NW9       30.05R
RALEIGH NC     LGT RAIN  53  43  68 E7        30.07R
ATLANTA GA     LGT RAIN  52  51  97 NE13      29.92F FOG
NEW ORLEANS LA TSTM      63  63 100 E13       29.71S FOG
OKLAHOMA CITY  PTCLDY    39  37  92 SE8       29.68R
ALBUQUERQUE NM PTCLDY    50  18  28 NW5       29.84R
SALT LAKE CITY MOCLDY    30  10  43 CALM      30.03S
LOS ANGELES CA PTCLDY    59  54  83 W7        29.93R
BOISE ID       PTCLDY    29  15  56 SE6       30.06F WCI  23
SEATTLE WA     LGT RAIN  37  36  96 SE8       30.00F FOG
$$

*** WEATHER ACROSS MANITOBA...SASKATCHEWAN AND ONTARIO ***
                ***ONTARIO***

CITY           SKY/WX    TMP DP  RH WIND       PRES   REMARKS
GERALDTON      CLOUDY    28  28 100 NE2       29.87R
THUNDER BAY    CLOUDY    32  30  93 CALM      29.87S
SIOUX LOOKOUT  NOT AVBL
TORONTO        MOCLDY    39  30  70 W9        30.05R
BIG TROUT LK   FLURRIES  25  23  93 VRB2      29.84R
PICKLE LAKE    FLURRIES  27  25  93 E6        29.80S WCI  20
DRYDEN         CLOUDY    30  28  93 E5        29.75R
KENORA         FLURRIES  28  27  93 E9        29.71F WCI  20
$$
                *** MANITOBA***

CITY           SKY/WX    TMP DP  RH WIND       PRES   REMARKS
BRANDON        SNOW      27  25  93 NE17G25   29.69S VSB 1/2 WCI  14
DAUPHIN        LGT SNOW  25  23  93 N18       29.81S VSB 1   WCI  11
ISLAND LAKE    FLURRIES  27  25  93 CALM      29.84R
PILOT MOUND      N/A     27  25  93 NE14        N/A  WCI  15
THE PAS        CLOUDY    21  16  79 W10       29.89R WCI  10
THOMPSON       FLURRIES  23  23 100 E2        29.86R
WINNIPEG       CLOUDY    30  27  86 NE17      29.71F WCI  18
LYNN LAKE      LGT SNOW  23  21  93 NE3       29.83R
CHURCHILL      FLURRIES  23  21  93 N7        29.93R WCI  15
GILLAM         FLURRIES  18  16  93 N3        29.89R
$$
                ***SASKATCHEWAN***

CITY           SKY/WX    TMP DP  RH WIND       PRES   REMARKS
ESTEVAN        SNOW      16  14  93 NW26G36   29.77R VSB 1/2 WCI  -3
KINDERSLEY     CLOUDY     3  -2  78 NW20G26   30.06S BLWGSNOWWCI -18
LLOYDMINSTER   CLOUDY     0  -6  78 NW15G23   30.10R WCI -20
PRINCE ALBERT  FLURRIES   9   1  72 NW15      30.00R WCI  -8
REGINA         LGT SNOW  12   9  85 NW23G30   29.91R BLWGSNOWWCI  -7
YORKTON        FLURRIES  19  18  93 N18       29.83S WCC1F1C2F2C3F3C4F4C5F5C6F6C7F7C8F8C9F9CaFaCbFbCcFcCdFdCe!



USA.gov is the U.S. government's official web portal to all federal, state and local government web resources and services.